Location: Garos
(43.5000°N, 0.4667°W)
Time: 01:31:22
(UTC+00:00)

Daily predictions for brighter satellites

Satellite Brightness Start Highest point End
(mag) Time Altitude Azimuth Time Altitude Azimuth Time Altitude Azimuth
Cosmos 2082 Rocket 3.8 03:49:32 30° ESE 03:49:32 30° ESE 03:54:15 10° NE
COSMOS 2455 4.2 03:58:09 32° NE 03:58:24 32° NE 04:03:45 10° ESE
Cosmos 1980 Rocket 3.0 04:14:14 45° ESE 04:14:14 45° ESE 04:18:13 10° SE
Cosmos 2279 Rocket 4.3 04:14:28 63° ESE 04:14:28 63° ESE 04:19:56 10° SSE
Cosmos 2098 Rocket 4.3 04:15:57 56° E 04:15:57 56° E 04:21:13 10° SSE
Tiangong 1.5 04:27:21 11° ESE 04:27:21 11° ESE 04:27:27 10° ESE
Cosmos 2333 Rocket 4.4 04:33:56 12° N 04:37:44 21° NE 04:41:59 10° E
Cosmos 2142 Rocket 4.3 04:47:06 34° N 04:50:04 84° W 04:56:15 10° S
USA 234 4.4 04:51:10 10° NE 04:56:28 27° N 04:57:47 25° NNW
SL-4 R/B 4.1 05:03:15 14° NE 05:03:15 14° NE 05:04:05 10° NE
Cosmos 2322 Rocket 4.1 05:02:03 10° N 05:06:42 25° NE 05:11:18 10° ESE
Meteor 2-3 Rocket 4.2 05:03:44 10° S 05:09:22 61° E 05:14:59 10° NNE
Cosmos 1726 Rocket 4.0 05:08:07 20° N 05:10:59 59° E 05:15:08 10° SSE
Cosmos 489 Rocket 4.4 05:06:58 10° SSW 05:13:17 88° ESE 05:19:36 10° NNE
Nadezhda 4 Rocket 3.9 05:08:01 10° S 05:14:20 81° W 05:20:39 10° N
Cosmos 1428 Rocket 4.4 05:09:15 10° S 05:15:27 87° E 05:21:46 10° N
CZ-4 R/B 3.7 05:12:15 10° NNE 05:16:55 83° ESE 05:21:31 10° SSW
NOSS 2-1 (D) 3.2 05:17:47 66° NNW 05:18:18 85° NE 05:23:10 10° SE
SL-24 R/B - RUBIN 2 4.5 05:19:22 32° SSW 05:19:22 32° SSW 05:22:26 10° S
Cosmos 2237 4.2 05:15:45 26° NNW 05:19:06 84° ENE 05:24:48 10° SSE
USA 59 Rocket -0.3 05:20:26 66° NW 05:20:59 83° SW 05:25:58 10° SSE
Cosmos 841 Rocket 3.3 05:16:07 10° SSW 05:21:19 76° WNW 05:26:36 10° NNE
COSMOS 2406 3.1 05:16:09 10° SSW 05:21:50 88° ESE 05:27:32 10° NNE
CZ-3 R/B 4.3 05:14:25 20° WSW 05:21:50 26° SW 05:29:13 10° S
NOSS 2-1 (E) 3.4 05:25:12 49° NNW 05:26:10 80° NE 05:30:59 10° SE
Cosmos 1933 3.5 05:27:10 47° SW 05:27:10 47° SW 05:30:13 10° S
NOSS 3-1 (C) 4.1 05:21:26 23° NW 05:26:32 85° NE 05:35:34 10° SE
Cosmos 1892 Rocket 3.6 05:24:04 10° S 05:28:24 78° E 05:32:48 10° N
Cosmos 2195 Rocket 4.5 05:22:31 10° S 05:28:46 88° E 05:35:08 10° N
ATLAS CENTAUR Rocket 4.5 05:27:44 10° SSW 05:32:01 25° SSE 05:42:45 10° ESE
Cosmos 2082 Rocket 2.5 05:31:29 32° W 05:33:18 42° WNW 05:38:38 10° NNE
SL-16 R/B 2.6 05:28:40 13° NNW 05:33:40 62° ENE 05:39:15 10° SE
IRS-1D 3.6 05:39:14 10° N 05:44:03 49° WNW 05:48:54 10° SW
COSMOS 2455 3.1 05:41:19 25° NW 05:44:33 50° WSW 05:50:18 10° S
Cosmos 1898 Rocket 3.8 05:42:42 26° NW 05:45:18 46° WSW 05:50:18 10° S
NOSS 2-1 (C) 3.5 05:44:49 36° WNW 05:46:10 57° SW 05:51:02 10° SSE
Meteor 2-20 4.4 05:40:47 10° N 05:46:56 85° W 05:53:00 10° S
Cosmos-2242 3.0 05:51:08 10° N 05:55:23 78° E 05:59:35 10° SSE
COSMO-SKYMED 1 2.6 05:51:50 10° S 05:55:49 49° W 05:59:10 14° NNW
Cosmos 1980 Rocket 3.5 05:56:02 19° W 05:56:06 19° W 05:59:54 10° SW
Cosmos 2278 3.8 05:51:07 10° NNW 05:56:48 82° ENE 06:02:27 10° SSE
SKYMED 2 4.3 05:55:08 10° SSW 05:59:00 32° W 06:01:14 20° NW
Tiangong -0.5 05:59:42 20° WSW 06:00:58 25° SSW 06:03:42 10° SE
Cosmos 2369 4.4 05:58:13 21° WNW 06:01:03 32° WSW 06:05:58 10° SSW
Cosmos 1627 Rocket 4.4 05:55:16 10° SSW 06:01:19 66° W 06:07:25 10° N
Cosmos 2058 Rocket 3.0 05:58:06 10° N 06:02:33 80° W 06:06:57 10° S
Cosmos 1484 Rocket 2.3 05:59:14 10° N 06:02:39 73° WNW 06:06:00 10° SSW
Meteor 2-2 Rocket 4.2 06:00:10 10° NNW 06:05:52 82° W 06:11:39 10° S
Okean 1 2.9 06:04:41 10° N 06:08:16 87° W 06:11:49 10° S
Meteor 2-20 Rocket 4.2 06:03:19 10° N 06:09:06 81° W 06:14:47 10° S
Cosmos 1937 Rocket 4.0 06:06:02 15° NW 06:09:49 38° WSW 06:14:30 10° SSW
ATLAS 2AS CENTAUR R/B 4.2 06:06:45 10° S 06:13:16 40° ESE 06:19:38 10° NE
ARIANE 5 R/B 3.9 06:09:53 10° NNE 06:14:51 44° E 06:19:49 10° S
Cosmos 2285 Rocket 4.4 06:08:32 10° NNW 06:14:54 66° ENE 06:21:16 10° SSE
IRIDIUM 104 4.4 06:11:31 10° S 06:16:44 86° E 06:21:59 10° N
Cosmos 2333 Rocket 2.2 06:16:52 10° NNW 06:22:39 74° WSW 06:28:21 10° SSE
IRIDIUM 114 4.3 06:20:39 10° S 06:25:52 79° W 06:31:07 10° N
SMAP 3.2 06:21:24 10° NNE 06:26:05 79° ESE 06:30:44 10° S
Helios 1A Rocket 3.9 06:25:09 10° SW 06:27:32 18° W 06:29:20 13° WNW
Cosmos 2360 Rocket 2.3 06:23:30 10° NNW 06:29:10 86° ENE 06:34:47 10° SSE
Cosmos 2026 Rocket 4.4 06:25:24 10° SW 06:30:57 37° WNW 06:36:33 10° N
Landsat 7 4.1 06:27:22 10° NNE 06:32:02 73° E 06:36:41 10° S
Cosmos 1814 Rocket 4.0 06:27:19 10° SSW 06:32:31 73° WNW 06:37:49 10° NNE
NOSS 3-1 (A) 4.2 06:25:46 10° NW 06:33:09 81° SW 06:42:14 10° SSE
CBERS-1 4.1 06:29:46 10° N 06:34:45 57° WNW 06:39:43 10° SSW
IRIDIUM 103 4.3 06:29:52 10° SSW 06:35:03 65° W 06:40:15 10° N
IGS 5A 3.8 06:31:47 10° N 06:35:32 39° WNW 06:39:16 10° SW
BREEZE-M DEB (TANK) 2.2 06:34:37 13° NW 06:36:06 46° NNE 06:38:42 10° ESE
USA 234 4.3 06:32:32 10° E 06:38:20 35° NNE 06:44:09 10° NW
Cosmos 1758 Rocket 3.5 06:34:33 10° SSW 06:38:58 68° W 06:43:21 10° N
Cosmos 1733 2.1 06:38:14 10° SW 06:39:55 30° W 06:41:37 10° NNW
SL-4 R/B 2.6 06:37:01 10° NW 06:39:57 31° NNE 06:42:49 10° E
Cosmos 1743 2.2 06:36:52 10° S 06:40:05 84° W 06:43:22 10° N
IRS-1C 4.4 06:38:44 10° NNE 06:44:05 76° ESE 06:49:24 10° S
BREEZE-M DEB (TANK) 3.7 06:42:46 10° WNW 06:45:28 40° N 06:52:06 10° ENE
Meteor 2-6 Rocket 4.4 06:40:14 10° NNW 06:46:10 69° W 06:52:03 10° S
Thor Agena Rocket 3.5 06:42:16 10° N 06:47:16 64° WNW 06:52:13 10° SSW
Cosmos 2219 Rocket 2.5 06:42:21 10° NNW 06:48:02 73° ENE 06:53:38 10° SSE
Cosmos 2322 Rocket 2.4 06:45:31 10° NNW 06:51:06 57° WSW 06:56:37 10° S
S3M 4.3 06:45:49 10° N 06:52:02 75° E 06:58:09 10° SSE
